Beaufort, NC

10:10 AM EST on December 15, 2019 (GMT -0500)
Smith

Weather History for KMRH - October, 2019

Change the Weather History Date:

Monday, October 14, 2019

  Actual Average Record
Temperature  
Mean Temperature 72 °F -  
Max Temperature 77 °F 77 °F 86 °F (1990)
Min Temperature 66 °F 55 °F 34 °F (1988)
Cooling Degree Days 6    
Growing Degree Days 22 (Base 50)    
Moisture  
Dew Point 67 °F    
Average Humidity 90    
Maximum Humidity 100    
Minimum Humidity 69    
Precipitation  
Precipitation 3.16 in - - ()
Sea Level Pressure  
Sea Level Pressure 30.04 in    
Wind  
Wind Speed 8 mph (South)    
Max Wind Speed 15 mph    
Max Gust Speed -    
Visibility 7 miles    
Events Rain , Thunderstorm    
Averages and records for this station are not official NWS values.
T = Trace of Precipitation, MM = Missing Value Source: NWS Daily Summary

Daily Weather History Graph

Daily Weather History Graph

Search for Another Location

Airport or City:

Astronomy

Oct. 14, 2019 Rise Set
Actual Time 7:11 AM EDT 6:33 PM EDT
Civil Twilight 6:45 AM EDT 6:58 PM EDT
Nautical Twilight 6:16 AM EDT 7:28 PM EDT
Astronomical Twilight 5:47 AM EDT 7:57 PM EDT
Moon 7:22 PM EDT (10/14) 7:41 AM EDT (10/14)
Length of Visible Light 12h 12m
Length of Day
11h 22m
Waxing Gibbous, 99% of the Moon is Illuminated
Oct 14
Waxing Gibbous
Oct 21
Last Quarter
Oct 27
New
Nov 4
First Quarter
Nov 12
Full

Hourly Weather History & Observations

Time (EDT) Temp. Dew Point Humidity Pressure Visibility Wind Dir Wind Speed Gust Speed Precip Events Conditions
12:08 AM 73.0 °F 68.0 °F 84% 30.06 in 6.0 mi WSW 6.9 mph - 0.02 in Rain , Thunderstorm Rain
12:25 AM 72.0 °F 69.1 °F 91% 30.05 in 2.0 mi South 6.9 mph - 0.16 in Rain , Thunderstorm Heavy Rain
12:32 AM 71.1 °F 70.0 °F 96% 30.05 in 2.0 mi South 9.2 mph - 0.24 in Rain , Thunderstorm Heavy Thunderstorms and Rain
12:58 AM 68.0 °F 66.9 °F 96% 30.05 in 3.0 mi South 11.5 mph - 0.49 in Rain , Thunderstorm Thunderstorms and Rain
1:16 AM 69.1 °F 68.0 °F 96% 30.03 in 6.0 mi South 8.1 mph - 0.08 in Rain , Thunderstorm Rain
1:26 AM 69.1 °F 68.0 °F 96% 30.04 in 6.0 mi South 11.5 mph - 0.10 in Rain Rain
1:31 AM 69.1 °F 66.9 °F 93% 30.03 in 5.0 mi South 9.2 mph - 0.11 in Rain , Thunderstorm Light Thunderstorms and Rain
1:51 AM 68.0 °F 66.9 °F 96% 30.04 in 1.8 mi SSW 10.4 mph - 0.29 in Rain , Thunderstorm Heavy Thunderstorms and Rain
1:58 AM 68.0 °F 66.9 °F 96% 30.04 in 1.0 mi SSW 11.5 mph - 0.49 in Rain Heavy Rain
2:02 AM 68.0 °F 66.9 °F 96% 30.04 in 1.2 mi SSW 13.8 mph - 0.07 in Rain , Thunderstorm Heavy Thunderstorms and Rain
2:04 AM 68.0 °F 66.9 °F 96% 30.04 in 1.0 mi SSW 13.8 mph - 0.15 in Rain , Thunderstorm Heavy Thunderstorms and Rain
2:15 AM 68.0 °F 66.9 °F 96% 30.04 in 0.8 mi South 6.9 mph - 0.50 in Rain Heavy Rain
2:20 AM 66.9 °F 66.9 °F 100% 30.05 in 1.2 mi SW 9.2 mph - 0.55 in Rain Heavy Rain
2:37 AM 66.9 °F 66.9 °F 100% 30.05 in 3.0 mi South 6.9 mph - 0.78 in Rain Rain
2:43 AM 66.9 °F 66.9 °F 100% 30.04 in 1.0 mi Calm Calm - 1.00 in Rain Heavy Rain
2:58 AM 66.9 °F 66.0 °F 97% 30.04 in 2.5 mi East 4.6 mph - 1.20 in Rain , Thunderstorm Rain
3:02 AM 66.9 °F 66.0 °F 97% 30.03 in 2.5 mi ENE 5.8 mph - 0.09 in Rain , Thunderstorm Heavy Rain
3:06 AM 66.9 °F 66.0 °F 97% 30.03 in 1.8 mi North 6.9 mph - 0.16 in Rain , Thunderstorm Heavy Thunderstorms and Rain
3:15 AM 66.9 °F 66.9 °F 100% 30.04 in 0.8 mi Calm Calm - 0.45 in Rain , Thunderstorm Heavy Thunderstorms and Rain
3:31 AM 66.9 °F 66.0 °F 97% 30.02 in 1.2 mi North 3.5 mph - 0.71 in Rain , Thunderstorm Heavy Thunderstorms and Rain
3:34 AM 66.9 °F 66.0 °F 97% 30.02 in 2.0 mi NNE 3.5 mph - 0.73 in Rain , Thunderstorm Heavy Rain
3:40 AM 66.9 °F 66.0 °F 97% 30.02 in 3.0 mi Calm Calm - 0.75 in Rain , Thunderstorm Heavy Rain
3:58 AM 66.9 °F 66.9 °F 100% 30.00 in 5.0 mi SE 4.6 mph - 0.81 in Rain Heavy Rain
4:21 AM - - N/A% 30.01 in 10.0 mi SSE 4.6 mph - 0.01 in   Mostly Cloudy
4:58 AM - - N/A% 30.03 in 10.0 mi South 6.9 mph - 0.02 in Rain Light Rain
5:10 AM - - N/A% 30.03 in 7.0 mi SSE 8.1 mph - 0.02 in Rain Rain
5:17 AM - - N/A% 30.03 in 6.0 mi South 5.8 mph - 0.04 in Rain Rain
5:46 AM - - N/A% 30.02 in 7.0 mi SE 10.4 mph - 0.11 in Rain Rain
5:58 AM - - N/A% 30.04 in 7.0 mi SSE 10.4 mph - 0.12 in Rain Light Rain
6:11 AM - - N/A% 30.03 in 9.0 mi SSE 10.4 mph - 0.01 in Rain Light Rain
6:35 AM - - N/A% 30.03 in 9.0 mi SE 8.1 mph - 0.02 in Rain Light Rain
6:47 AM - - N/A% 30.04 in 10.0 mi SSE 6.9 mph - 0.02 in   Overcast
6:58 AM - - N/A% 30.05 in 10.0 mi South 5.8 mph - 0.02 in   Overcast
7:31 AM - - N/A% 30.04 in 10.0 mi SE 8.1 mph - 0.01 in   Mostly Cloudy
7:42 AM - - N/A% 30.05 in 10.0 mi SE 5.8 mph - 0.01 in   Overcast
7:58 AM - - N/A% 30.06 in 10.0 mi SE 6.9 mph - 0.01 in Rain Light Rain
8:14 AM - - N/A% 30.05 in 10.0 mi Calm Calm - 0.00 in   Overcast
8:58 AM - - N/A% 30.07 in 10.0 mi SE 5.8 mph - 0.00 in   Mostly Cloudy
9:12 AM - - N/A% 30.07 in 10.0 mi South 4.6 mph - N/A   Scattered Clouds
9:39 AM - - N/A% 30.07 in 10.0 mi SSE 3.5 mph - N/A   Mostly Cloudy
9:49 AM 72.0 °F 69.1 °F 91% 30.07 in 10.0 mi South 3.5 mph - N/A   Scattered Clouds
9:58 AM 73.0 °F 69.1 °F 87% 30.08 in 10.0 mi Variable 4.6 mph - N/A   Scattered Clouds
10:19 AM 73.0 °F 69.1 °F 87% 30.08 in 10.0 mi West 9.2 mph - N/A   Mostly Cloudy
10:58 AM 73.0 °F 68.0 °F 84% 30.07 in 10.0 mi West 8.1 mph - N/A   Clear
11:58 AM 75.0 °F 68.0 °F 79% 30.06 in 10.0 mi SW 8.1 mph - N/A   Clear
12:58 PM 75.9 °F 66.0 °F 71% 30.04 in 10.0 mi WSW 11.5 mph - N/A   Clear
1:58 PM 77.0 °F 66.0 °F 69% 30.01 in 10.0 mi WSW 10.4 mph - N/A   Clear
2:58 PM 75.9 °F 66.9 °F 74% 30.01 in 10.0 mi SSW 11.5 mph - N/A   Clear
3:58 PM 75.9 °F 66.0 °F 71% 30.01 in 10.0 mi SW 15.0 mph - N/A   Clear
4:58 PM 75.9 °F 66.0 °F 71% 30.01 in 10.0 mi SW 12.7 mph - N/A   Clear
6:58 PM 73.0 °F 66.9 °F 81% 30.02 in 10.0 mi WSW 8.1 mph - N/A   Clear
7:58 PM 73.0 °F 66.0 °F 79% 30.04 in 10.0 mi SW 6.9 mph - N/A   Clear
8:58 PM 73.0 °F 68.0 °F 84% 30.05 in 10.0 mi WSW 4.6 mph - N/A   Clear
9:58 PM 71.1 °F 68.0 °F 90% 30.07 in 10.0 mi NW 5.8 mph - N/A   Clear
10:58 PM 70.0 °F 66.9 °F 90% 30.07 in 10.0 mi WNW 4.6 mph - N/A   Clear
11:58 PM 69.1 °F 66.9 °F 93% 30.08 in 10.0 mi Calm Calm - N/A   Clear